Simultaneous Nadir Overpasses (SNOs) Predictions

Prediction of SNOs between GOES-15 and FY3D Satellite Orbit:

Table of predicted SNOs for the next 14.0 days since TLE Epoch: 12/26/2020
Index Date Time (GOES-15) GOES-15 Lat,Lon FY3D Lat,Lon Distance(km) Time Diff (sec)
1 12/27/2020 10:24:22 0.17,-128.25 1.04,-132.24 453.92 80
2 12/28/2020 10:02:45 0.14,-128.25 -0.01,-127.66 67.91 80
3 12/30/2020 22:08:04 -0.17,-128.26 -0.19,-128.28 2.97 80
4 01/02/2021 10:10:36 0.19,-128.21 0.35,-128.87 75.84 80
5 01/03/2021 09:49:00 0.16,-128.20 -0.71,-124.29 445.05 80
6 01/04/2021 22:13:16 -0.21,-128.21 -0.49,-129.50 147.33 80
7 01/05/2021 21:51:39 -0.18,-128.20 0.57,-124.93 373.22 80
8 01/07/2021 10:15:48 0.22,-128.15 0.64,-130.10 222.34 80
9 01/08/2021 09:54:10 0.20,-128.13 -0.36,-125.51 298.06 80
